QPF
0.00 0.02 0.21 0.13 0.08 0.13 0.15 0.21 0.33 0.42 0.68 0.77 0.26 0.03 0.00 0.00 0.00 0.00 0.00 0.00 0.00 0.00 0.00 0.01 0.00 0.00 0.00 0.00 0.00 0.00 0.01 0.12 0.06 0.07 0.02 0.03 0.07 0.04 0.01 0.01 0.00 0.00 0.02 0.00
0.00 0.04 0.19 0.15 0.13 0.14 0.14 0.26 0.33 0.48 0.39 0.33 0.10 0.02 0.00 0.00 0.00 0.00 0.00 0.00 0.01 0.01 0.01 0.01 0.00 0.00 0.00 0.00 0.00 0.01 0.06 0.14 0.08 0.07 0.10 0.10 0.11 0.07 0.05 0.01 0.00 0.01 0.07 0.01
0.00 0.02 0.11 0.14 0.16 0.20 0.14 0.29 0.50 0.63 0.62 0.16 0.01 0.00 0.00 0.00 0.00 0.00 0.00 0.01 0.03 0.03 0.01 0.00 0.00 0.00 0.00 0.00 0.00 0.00 0.06 0.13 0.10 0.12 0.16 0.18 0.05 0.01 0.01 0.00 0.00 0.01 0.04 0.00
0.00 0.01 0.04 0.11 0.18 0.17 0.15 0.23 0.30 0.21 0.23 0.10 0.01 0.00 0.00 0.00 0.00 0.00 0.02 0.03 0.02 0.03 0.02 0.00 0.00 0.00 0.00 0.00 0.00 0.01 0.11 0.15 0.11 0.09 0.09 0.19 0.14 0.03 0.01 0.01 0.00 0.01 0.02 0.03
0.00 0.00 0.02 0.04 0.09 0.07 0.07 0.19 0.19 0.02 0.00 0.01 0.01 0.00 0.00 0.00 0.00 0.01 0.01 0.01 0.02 0.02 0.01 0.00 0.00 0.00 0.00 0.00 0.01 0.07 0.16 0.18 0.24 0.31 0.10 0.07 0.10 0.05 0.03 0.07 0.03 0.06 0.12 0.11
0.00 0.00 0.01 0.05 0.12 0.15 0.15 0.21 0.09 0.00 0.00 0.00 0.01 0.00 0.00 0.00 0.01 0.01 0.00 0.01 0.03 0.01 0.00 0.00 0.00 0.00 0.00 0.00 0.02 0.10 0.15 0.20 0.24 0.36 0.27 0.15 0.23 0.21 0.41 0.27 0.11 0.17 0.23 0.12
0.00 0.00 0.01 0.05 0.08 0.18 0.28 0.27 0.14 0.02 0.01 0.00 0.00 0.00 0.00 0.00 0.01 0.03 0.04 0.03 0.02 0.00 0.00 0.00 0.00 0.00 0.00 0.00 0.00 0.01 0.01 0.10 0.19 0.13 0.03 0.08 0.05 0.07 0.24 0.18 0.16 0.21 0.10 0.05
0.00 0.00 0.01 0.04 0.10 0.13 0.17 0.17 0.04 0.00 0.00 0.00 0.01 0.00 0.00 0.03 0.04 0.04 0.08 0.06 0.01 0.00 0.01 0.01 0.00 0.00 0.00 0.00 0.00 0.00 0.00 0.01 0.03 0.02 0.00 0.01 0.00 0.00 0.01 0.02 0.07 0.06 0.04 0.01
0.00 0.00 0.00 0.02 0.09 0.11 0.19 0.16 0.05 0.00 0.01 0.00 0.01 0.02 0.01 0.03 0.06 0.07 0.09 0.09 0.02 0.02 0.02 0.02 0.00 0.00 0.00 0.00 0.00 0.00 0.00 0.01 0.01 0.00 0.00 0.00 0.00 0.00 0.00 0.00 0.01 0.00 0.00 0.00
0.00 0.00 0.00 0.02 0.03 0.08 0.12 0.11 0.05 0.00 0.00 0.00 0.00 0.01 0.02 0.03 0.07 0.08 0.10 0.15 0.07 0.01 0.01 0.02 0.00 0.00 0.00 0.00 0.00 0.00 0.00 0.00 0.00 0.00 0.00 0.00 0.00 0.00 0.00 0.00 0.00 0.00 0.00 0.00
0.00 0.00 0.00 0.02 0.02 0.08 0.11 0.08 0.02 0.01 0.02 0.00 0.00 0.00 0.00 0.04 0.07 0.09 0.12 0.18 0.11 0.02 0.02 0.06 0.00 0.00 0.00 0.00 0.00 0.00 0.00 0.00 0.00 0.00 0.00 0.00 0.00 0.00 0.00 0.00 0.00 0.00 0.00 0.00
0.00 0.00 0.01 0.02 0.01 0.06 0.07 0.06 0.01 0.01 0.01 0.00 0.00 0.01 0.01 0.02 0.04 0.07 0.06 0.11 0.05 0.01 0.01 0.01 0.00 0.00 0.00 0.00 0.00 0.00 0.00 0.00 0.00 0.00 0.00 0.00 0.00 0.00 0.00 0.00 0.00 0.00 0.00 0.00
0.00 0.00 0.01 0.01 0.01 0.06 0.07 0.06 0.01 0.01 0.02 0.00 0.00 0.01 0.02 0.01 0.04 0.06 0.07 0.05 0.07 0.03 0.00 0.00 0.00 0.00 0.00 0.00 0.00 0.00 0.00 0.00 0.00 0.00 0.00 0.00 0.00 0.00 0.00 0.00 0.00 0.00 0.00 0.00
0.00 0.00 0.01 0.00 0.02 0.04 0.04 0.02 0.01 0.00 0.00 0.00 0.01 0.02 0.00 0.00 0.03 0.05 0.06 0.16 0.16 0.12 0.01 0.00 0.00 0.00 0.00 0.00 0.00 0.00 0.00 0.00 0.00 0.00 0.00 0.00 0.00 0.00 0.00 0.00 0.00 0.00 0.00 0.00
0.01 0.01 0.01 0.00 0.02 0.03 0.02 0.03 0.00 0.00 0.01 0.02 0.03 0.02 0.00 0.00 0.02 0.02 0.07 0.11 0.15 0.15 0.10 0.00 0.01 0.01 0.00 0.00 0.00 0.00 0.00 0.00 0.00 0.00 0.00 0.00 0.00 0.00 0.00 0.00 0.00 0.00 0.00 0.00
0.01 0.01 0.00 0.00 0.02 0.03 0.03 0.03 0.00 0.00 0.00 0.04 0.08 0.05 0.00 0.00 0.00 0.00 0.03 0.03 0.06 0.11 0.14 0.03 0.00 0.00 0.01 0.00 0.00 0.00 0.00 0.00 0.00 0.00 0.00 0.00 0.00 0.00 0.00 0.00 0.00 0.00 0.00 0.00
0.01 0.01 0.00 0.00 0.02 0.05 0.04 0.01 0.00 0.00 0.00 0.03 0.08 0.04 0.00 0.00 0.00 0.00 0.00 0.04 0.06 0.07 0.12 0.05 0.00 0.00 0.00 0.00 0.00 0.00 0.00 0.00 0.00 0.00 0.00 0.00 0.00 0.00 0.00 0.00 0.00 0.00 0.00 0.00
0.00 0.00 0.00 0.00 0.01 0.03 0.02 0.00 0.00 0.00 0.00 0.00 0.03 0.02 0.00 0.00 0.00 0.00 0.00 0.01 0.02 0.02 0.03 0.02 0.01 0.01 0.00 0.00 0.00 0.00 0.00 0.00 0.00 0.00 0.00 0.00 0.00 0.00 0.00 0.00 0.00 0.00 0.00 0.00
0.00 0.00 0.00 0.02 0.02 0.02 0.02 0.03 0.01 0.00 0.00 0.01 0.00 0.00 0.00 0.00 0.00 0.00 0.00 0.00 0.00 0.00 0.00 0.00 0.01 0.00 0.00 0.00 0.00 0.00 0.00 0.00 0.00 0.00 0.00 0.00 0.00 0.00 0.00 0.00 0.00 0.00 0.00 0.00
0.00 0.00 0.03 0.05 0.03 0.03 0.03 0.09 0.07 0.02 0.01 0.01 0.00 0.00 0.00 0.00 0.00 0.00 0.00 0.00 0.00 0.00 0.00 0.00 0.00 0.00 0.00 0.00 0.00 0.00 0.00 0.00 0.00 0.00 0.00 0.00 0.00 0.00 0.00 0.00 0.00 0.00 0.00 0.00
0.02 0.04 0.10 0.12 0.13 0.08 0.05 0.07 0.08 0.04 0.03 0.01 0.00 0.00 0.00 0.00 0.00 0.00 0.00 0.00 0.00 0.00 0.00 0.00 0.00 0.00 0.00 0.00 0.00 0.00 0.00 0.00 0.00 0.00 0.00 0.00 0.00 0.00 0.00 0.00 0.00 0.00 0.00 0.00
0.02 0.12 0.19 0.31 0.21 0.16 0.05 0.03 0.04 0.01 0.00 0.00 0.00 0.00 0.00 0.00 0.00 0.01 0.01 0.00 0.00 0.00 0.00 0.00 0.00 0.00 0.00 0.00 0.00 0.00 0.00 0.00 0.00 0.00 0.00 0.00 0.00 0.00 0.00 0.00 0.00 0.00 0.00 0.00
0.05 0.17 0.24 0.20 0.13 0.07 0.00 0.00 0.01 0.00 0.00 0.00 0.00 0.00 0.00 0.00 0.00 0.01 0.00 0.00 0.00 0.00 0.00 0.00 0.00 0.00 0.00 0.00 0.00 0.00 0.00 0.00 0.00 0.00 0.00 0.00 0.00 0.00 0.00 0.00 0.00 0.00 0.00 0.00
0.10 0.19 0.23 0.09 0.03 0.00 0.00 0.00 0.00 0.00 0.00 0.00 0.00 0.00 0.00 0.00 0.00 0.02 0.00 0.00 0.00 0.00 0.00 0.00 0.00 0.00 0.00 0.00 0.00 0.00 0.00 0.00 0.00 0.00 0.00 0.00 0.00 0.00 0.00 0.00 0.00 0.00 0.00 0.00
0.10 0.18 0.16 0.04 0.01 0.00 0.00 0.00 0.00 0.00 0.00 0.00 0.00 0.00 0.00 0.00 0.01 0.00 0.00 0.00 0.00 0.00 0.00 0.00 0.00 0.00 0.00 0.00 0.00 0.00 0.00 0.00 0.00 0.00 0.00 0.00 0.00 0.00 0.00 0.00 0.00 0.00 0.00 0.00
0.10 0.13 0.07 0.00 0.00 0.00 0.00 0.00 0.00 0.00 0.00 0.00 0.00 0.00 0.00 0.00 0.00 0.00 0.00 0.00 0.00 0.00 0.00 0.00 0.00 0.00 0.00 0.00 0.00 0.00 0.00 0.00 0.00 0.00 0.00 0.00 0.00 0.00 0.00 0.00 0.00 0.00 0.00 0.00
0.07 0.03 0.00 0.00 0.00 0.00 0.00 0.00 0.00 0.00 0.00 0.00 0.00 0.00 0.00 0.00 0.00 0.00 0.00 0.00 0.00 0.00 0.00 0.00 0.00 0.00 0.00 0.00 0.00 0.00 0.00 0.00 0.00 0.00 0.00 0.00 0.00 0.00 0.00 0.00 0.00 0.00 0.00 0.00
MSLP
1009.79 1008.92 1008.06 1007.10 1006.00 1005.17 1005.44 1005.37 1004.93 1004.44 1004.67 1006.32 1006.37 1006.75 1006.88 1007.01 1007.55 1007.86 1008.14 1008.33 1008.95 1009.28 1009.26 1009.38 1009.53 1008.91 1008.35 1007.72 1008.57 1009.98 1009.78 1010.04 1009.00 1008.16 1007.61 1007.76 1007.85 1008.10 1008.41 1008.36 1007.99 1007.41 1006.28 1002.07
1009.50 1008.63 1007.82 1006.96 1006.15 1005.83 1005.68 1005.21 1004.59 1004.70 1004.96 1005.67 1006.27 1006.34 1006.57 1006.66 1007.43 1007.69 1008.13 1008.29 1008.65 1008.71 1008.86 1008.85 1008.34 1007.92 1006.84 1007.33 1007.97 1008.34 1009.22 1009.29 1008.40 1007.11 1006.88 1007.32 1007.03 1007.19 1007.39 1007.36 1006.80 1006.39 1005.91 1001.16
1009.24 1008.47 1007.68 1006.95 1006.23 1005.64 1005.93 1005.39 1004.55 1004.52 1005.59 1005.48 1005.49 1005.91 1006.33 1006.74 1007.05 1007.46 1007.82 1008.05 1008.48 1008.56 1008.28 1008.07 1007.50 1007.34 1006.37 1006.18 1006.69 1007.37 1008.24 1008.08 1007.46 1006.41 1005.35 1005.83 1005.71 1005.68 1006.20 1006.63 1006.08 1005.04 1003.77 1001.96
1008.94 1008.23 1007.56 1007.01 1006.15 1005.45 1005.08 1004.72 1004.30 1004.12 1004.91 1005.07 1005.12 1005.54 1005.79 1006.34 1006.88 1007.38 1007.48 1007.66 1007.64 1007.77 1007.51 1007.21 1006.79 1006.94 1006.56 1006.05 1005.95 1006.92 1007.48 1006.67 1006.06 1004.94 1004.45 1004.72 1004.40 1004.34 1004.85 1005.07 1004.55 1004.21 1003.59 1002.60
1008.67 1007.94 1007.29 1006.31 1005.95 1004.79 1004.36 1004.13 1003.46 1003.60 1003.66 1004.45 1005.10 1005.60 1005.49 1005.59 1006.27 1006.80 1006.90 1006.98 1006.92 1007.11 1006.82 1006.30 1006.01 1005.96 1006.14 1005.49 1005.87 1006.19 1006.56 1005.76 1005.20 1003.80 1002.73 1001.85 1002.63 1003.03 1003.47 1003.57 1003.54 1003.53 1003.44 1001.36
1008.47 1007.71 1006.99 1006.25 1005.69 1005.34 1004.32 1003.71 1003.27 1003.20 1003.45 1004.09 1004.58 1004.48 1004.83 1005.03 1005.50 1005.99 1006.02 1006.25 1006.47 1005.92 1005.81 1005.56 1005.61 1005.62 1005.67 1005.72 1005.64 1005.57 1005.69 1005.54 1004.76 1003.00 1001.85 1001.25 1001.78 1000.78 1001.40 1002.34 1002.42 1002.65 1002.83 1000.76
1008.52 1007.86 1007.19 1006.46 1005.83 1005.24 1004.26 1003.75 1003.65 1002.80 1003.18 1003.47 1003.55 1003.96 1004.46 1004.65 1004.81 1005.25 1005.31 1005.57 1005.55 1005.09 1004.91 1004.79 1005.12 1005.30 1005.14 1004.85 1004.24 1004.47 1004.40 1004.50 1004.10 1002.50 1001.78 1000.94 1000.19 999.01 1000.07 1000.85 1001.42 1002.21 1002.31 1001.75
1008.26 1007.74 1007.23 1006.33 1005.46 1004.90 1004.26 1003.29 1002.92 1002.42 1002.67 1003.07 1003.31 1003.65 1004.03 1004.32 1004.72 1004.88 1004.80 1004.68 1004.70 1004.75 1005.06 1005.09 1004.80 1004.83 1004.46 1003.69 1003.11 1003.02 1003.34 1003.56 1003.15 1002.43 1001.72 1000.56 999.83 1000.32 1000.64 1001.07 1001.18 1001.20 1001.35 1001.63
1007.87 1007.17 1006.56 1005.73 1005.07 1004.62 1003.85 1002.75 1002.52 1002.17 1002.30 1002.71 1002.60 1003.35 1003.58 1003.87 1004.24 1004.44 1004.00 1003.89 1004.17 1004.81 1004.82 1004.76 1004.74 1004.72 1004.36 1003.55 1002.91 1002.69 1003.03 1003.03 1003.42 1002.58 1001.74 1000.44 999.31 998.88 999.02 999.99 1000.26 1000.12 1000.93 1000.76
1007.77 1007.20 1006.54 1005.85 1005.06 1004.48 1003.59 1002.53 1002.21 1001.91 1002.40 1002.57 1002.54 1002.99 1003.28 1003.63 1004.07 1004.23 1003.99 1003.73 1003.61 1003.95 1004.11 1004.11 1004.26 1004.32 1003.89 1003.43 1002.91 1002.78 1002.85 1002.88 1002.74 1002.52 1001.76 1000.11 999.00 998.60 998.50 999.38 1000.04 999.60 999.76 1000.03
1007.43 1006.97 1006.26 1005.45 1004.78 1004.49 1003.69 1002.85 1002.35 1002.14 1002.47 1002.55 1002.39 1002.56 1002.92 1003.43 1003.73 1003.85 1003.94 1003.83 1003.11 1003.46 1003.66 1003.49 1003.53 1003.48 1003.11 1002.89 1002.63 1002.34 1002.42 1002.82 1002.64 1002.25 1001.58 1000.34 999.08 998.45 998.84 999.52 999.71 999.97 1000.06 1000.42
1007.17 1006.77 1006.16 1005.56 1004.91 1004.48 1003.80 1002.93 1002.51 1002.24 1002.61 1002.83 1002.60 1002.51 1002.45 1002.58 1002.80 1003.34 1003.47 1003.40 1002.90 1002.61 1002.77 1002.85 1002.89 1003.13 1002.93 1002.82 1002.74 1002.43 1002.39 1001.79 1001.62 1001.40 1000.55 999.86 999.44 999.43 999.46 999.69 999.99 1000.37 1000.67 1001.13
1006.81 1006.35 1005.93 1005.39 1004.85 1004.39 1003.88 1003.06 1002.51 1002.59 1002.79 1002.80 1002.66 1002.30 1002.14 1002.34 1002.52 1002.70 1003.18 1002.99 1002.77 1002.37 1002.37 1002.25 1002.30 1002.55 1002.60 1002.64 1002.28 1002.02 1001.52 1001.09 1001.16 1000.92 1000.30 999.94 999.63 999.52 999.75 1000.00 1000.66 1001.15 1001.47 1001.93
1006.92 1006.29 1005.84 1005.24 1004.57 1004.10 1003.71 1003.10 1002.41 1002.37 1002.71 1002.77 1002.33 1002.12 1002.08 1001.97 1002.32 1002.61 1002.70 1002.72 1002.66 1002.60 1002.39 1002.30 1002.11 1002.19 1002.03 1002.07 1001.79 1001.52 1000.90 1000.81 1000.60 1000.43 1000.00 999.92 999.95 1000.09 1000.60 1001.08 1001.58 1002.06 1002.66 1003.09
1006.44 1005.92 1005.36 1004.81 1004.27 1003.79 1003.26 1002.74 1002.29 1002.20 1002.68 1002.35 1002.22 1002.08 1001.89 1002.06 1002.32 1002.56 1002.70 1002.84 1002.74 1002.31 1001.92 1001.91 1001.84 1001.73 1001.92 1001.79 1001.67 1001.06 1000.42 1000.12 1000.16 999.73 999.57 999.85 1000.12 1000.45 1001.14 1001.63 1002.41 1002.98 1003.37 1004.30
1006.02 1005.51 1004.96 1004.46 1004.10 1003.78 1003.03 1002.40 1002.23 1002.23 1002.31 1002.53 1002.39 1002.08 1001.99 1002.15 1002.32 1002.53 1002.64 1002.67 1002.41 1002.05 1001.63 1001.55 1001.61 1001.51 1001.62 1001.72 1001.23 999.70 999.43 999.22 998.91 999.32 999.63 1000.11 1000.56 1001.16 1001.59 1002.33 1003.15 1003.77 1004.29 1004.90
1005.60 1004.98 1004.38 1004.06 1003.82 1003.66 1003.21 1002.91 1002.58 1002.17 1002.20 1002.60 1002.46 1002.16 1002.05 1002.00 1002.22 1002.41 1002.48 1002.47 1002.28 1002.02 1001.76 1001.63 1001.59 1001.66 1001.52 1001.54 1000.89 999.61 999.40 999.22 999.45 999.75 999.95 1001.04 1001.42 1001.96 1002.48 1002.98 1003.92 1004.64 1005.37 1006.01
1004.93 1004.35 1003.89 1003.55 1003.29 1003.11 1002.69 1001.94 1001.89 1001.99 1002.36 1002.69 1002.68 1002.54 1002.32 1002.06 1002.15 1002.34 1002.34 1002.35 1002.26 1002.08 1002.04 1002.01 1001.95 1002.11 1001.99 1001.29 999.85 999.69 999.80 999.90 1000.13 1000.40 1000.35 1000.63 1001.79 1002.71 1003.57 1003.87 1004.62 1005.56 1006.52 1007.19
1004.01 1003.31 1002.98 1002.89 1002.83 1002.36 1001.73 1001.71 1001.92 1002.14 1002.65 1002.58 1002.80 1002.68 1002.60 1002.32 1002.35 1002.39 1002.54 1002.50 1002.59 1002.51 1002.37 1002.38 1002.47 1002.05 1001.48 999.83 999.62 999.73 1000.01 1000.20 1000.88 1001.39 1001.61 1002.07 1002.58 1003.51 1004.28 1004.78 1005.60 1006.17 1007.34 1007.97
1003.04 1002.87 1002.73 1002.50 1001.73 1001.37 1001.64 1002.06 1002.16 1002.49 1002.46 1002.66 1002.68 1002.61 1002.82 1002.92 1002.74 1002.85 1002.97 1002.89 1002.92 1002.95 1002.90 1002.77 1002.62 1001.54 1000.01 999.69 999.77 999.86 1000.09 1000.64 1001.07 1001.74 1002.81 1003.32 1003.82 1004.21 1004.89 1005.44 1006.10 1006.66 1007.51 1008.46
1003.52 1003.20 1003.06 1002.42 1001.70 1001.70 1002.06 1002.33 1002.56 1002.58 1002.70 1002.50 1002.36 1002.45 1002.71 1002.98 1002.94 1003.05 1003.35 1003.45 1003.58 1003.60 1003.45 1003.33 1002.97 1001.86 1000.41 1000.28 1000.25 1000.28 1000.44 1000.86 1001.28 1001.38 1001.83 1002.61 1002.85 1003.88 1005.07 1006.13 1006.79 1007.47 1008.20 1009.10
1004.61 1004.59 1004.04 1003.04 1001.97 1002.10 1002.44 1002.67 1002.81 1002.62 1002.29 1002.14 1002.11 1002.41 1002.61 1003.11 1003.04 1003.19 1003.76 1003.96 1004.18 1004.16 1004.11 1004.13 1003.48 1001.53 1000.89 1000.96 1000.94 1000.94 1001.00 1001.38 1001.77 1002.02 1002.29 1003.07 1003.95 1004.69 1005.55 1006.51 1007.41 1008.20 1009.04 1009.94
1004.14 1004.03 1003.83 1003.12 1002.55 1002.40 1002.29 1002.22 1002.38 1002.35 1001.88 1001.79 1001.93 1002.45 1002.74 1003.29 1003.36 1004.04 1004.20 1004.65 1004.89 1004.88 1005.06 1004.41 1002.65 1001.85 1001.67 1001.68 1001.69 1001.81 1001.80 1001.98 1002.33 1002.86 1003.28 1003.81 1004.76 1005.54 1006.10 1007.19 1008.12 1008.89 1009.88 1010.83
1004.11 1003.93 1003.63 1003.22 1002.61 1002.27 1002.05 1002.12 1002.11 1001.71 1001.57 1001.61 1001.96 1002.54 1002.81 1003.39 1003.83 1004.45 1004.96 1005.39 1005.65 1005.86 1005.63 1003.95 1002.68 1002.24 1002.28 1002.35 1002.37 1002.40 1002.68 1002.82 1003.15 1003.67 1004.23 1004.85 1005.62 1006.61 1007.44 1008.18 1008.96 1009.65 1010.73 1011.78
1004.14 1004.09 1003.56 1003.18 1002.91 1002.64 1002.54 1002.57 1002.63 1002.26 1001.96 1001.74 1002.31 1002.91 1003.06 1003.84 1004.60 1005.10 1005.77 1006.12 1005.87 1005.34 1004.24 1003.53 1002.99 1003.03 1003.14 1003.23 1003.18 1003.26 1003.42 1003.68 1004.10 1004.55 1005.14 1005.99 1006.75 1007.72 1008.75 1009.45 1010.10 1010.91 1011.80 1012.64
1004.31 1004.23 1003.99 1003.59 1003.35 1003.11 1003.02 1002.82 1002.77 1002.52 1002.23 1002.11 1002.32 1003.09 1003.62 1004.17 1004.58 1005.59 1005.51 1005.77 1004.82 1003.82 1003.76 1003.82 1003.63 1003.70 1003.83 1003.90 1003.84 1003.96 1004.23 1004.45 1004.80 1005.34 1006.01 1006.90 1007.76 1008.79 1009.83 1010.62 1011.54 1012.27 1012.91 1013.70
1004.59 1004.53 1004.43 1004.29 1003.93 1003.57 1003.19 1002.91 1002.60 1002.32 1002.44 1002.21 1002.61 1003.33 1003.85 1004.68 1005.05 1005.50 1005.24 1004.33 1003.72 1003.77 1004.09 1004.12 1004.29 1004.26 1004.40 1004.42 1004.55 1004.72 1005.03 1005.48 1005.89 1006.47 1007.28 1008.11 1008.97 1009.89 1010.71 1011.87 1013.09 1013.52 1014.22 1014.78
Thickness
5360 5367 5372 5381 5394 5408 5417 5431 5448 5466 5475 5459 5473 5484 5492 5507 5504 5510 5510 5515 5515 5513 5517 5517 5501 5507 5520 5527 5517 5493 5498 5487 5493 5499 5496 5497 5492 5483 5485 5484 5469 5491 5500 5547
5361 5367 5376 5382 5394 5405 5419 5436 5456 5462 5470 5470 5472 5488 5496 5506 5499 5502 5505 5508 5512 5514 5509 5516 5513 5516 5533 5525 5515 5506 5498 5492 5499 5507 5500 5485 5485 5482 5476 5490 5501 5495 5497 5556
5362 5372 5381 5385 5398 5409 5419 5432 5452 5465 5460 5473 5487 5490 5495 5498 5503 5504 5505 5504 5504 5502 5509 5514 5520 5518 5534 5532 5529 5522 5507 5500 5503 5521 5530 5507 5507 5501 5483 5481 5496 5513 5523 5551
5364 5376 5383 5390 5399 5410 5427 5441 5454 5468 5464 5470 5489 5495 5495 5497 5497 5499 5503 5501 5504 5505 5514 5514 5521 5517 5522 5532 5534 5521 5510 5511 5511 5515 5516 5515 5517 5513 5508 5501 5516 5516 5529 5538
5365 5376 5386 5397 5405 5423 5439 5453 5472 5476 5485 5485 5487 5486 5496 5506 5504 5497 5500 5504 5506 5506 5512 5523 5518 5524 5525 5535 5532 5527 5515 5517 5511 5525 5542 5539 5535 5527 5527 5530 5532 5535 5535 5560
5367 5378 5389 5399 5411 5423 5441 5455 5468 5481 5487 5486 5488 5497 5503 5506 5507 5504 5506 5500 5502 5514 5514 5522 5522 5525 5525 5530 5534 5527 5518 5514 5524 5545 5546 5553 5547 5555 5551 5544 5546 5548 5544 5572
5371 5379 5389 5401 5415 5428 5447 5460 5466 5485 5488 5494 5501 5502 5502 5504 5512 5507 5508 5509 5507 5519 5523 5525 5524 5525 5528 5533 5541 5541 5535 5531 5529 5552 5554 5560 5568 5576 5567 5562 5559 5555 5557 5569
5378 5385 5395 5409 5424 5436 5449 5463 5474 5484 5494 5495 5497 5500 5503 5504 5505 5504 5507 5512 5514 5517 5515 5517 5527 5526 5541 5547 5549 5553 5551 5547 5552 5558 5546 5571 5578 5564 5560 5558 5562 5568 5574 5577
5388 5398 5409 5423 5435 5445 5457 5471 5478 5487 5488 5497 5505 5502 5505 5505 5504 5502 5510 5511 5509 5509 5517 5521 5519 5522 5534 5554 5559 5553 5552 5552 5549 5552 5547 5568 5586 5588 5584 5578 5577 5591 5587 5590
5391 5402 5414 5425 5437 5448 5460 5475 5481 5490 5488 5494 5501 5498 5503 5501 5501 5499 5505 5510 5514 5513 5519 5530 5526 5532 5545 5545 5558 5559 5557 5556 5558 5549 5562 5570 5587 5591 5595 5587 5587 5597 5603 5605
5395 5405 5417 5429 5440 5448 5460 5473 5480 5487 5487 5493 5501 5502 5500 5498 5498 5499 5502 5509 5521 5519 5522 5531 5523 5529 5548 5548 5556 5566 5565 5552 5554 5560 5558 5567 5588 5597 5600 5593 5592 5592 5597 5601
5396 5407 5417 5427 5439 5449 5459 5472 5478 5484 5486 5493 5495 5500 5504 5506 5507 5503 5502 5511 5520 5531 5529 5532 5534 5539 5540 5548 5552 5551 5558 5565 5563 5566 5570 5583 5587 5590 5592 5592 5593 5588 5586 5585
5398 5410 5419 5429 5439 5449 5459 5470 5477 5480 5485 5491 5493 5500 5505 5505 5505 5507 5505 5512 5520 5527 5526 5533 5541 5546 5536 5547 5554 5554 5563 5566 5569 5574 5580 5583 5589 5591 5589 5587 5580 5576 5579 5581
5396 5408 5418 5430 5442 5452 5459 5468 5477 5483 5486 5489 5499 5500 5503 5507 5506 5506 5509 5513 5517 5520 5524 5532 5536 5542 5537 5545 5552 5557 5564 5567 5570 5569 5579 5579 5584 5586 5576 5571 5571 5571 5569 5571
5398 5411 5422 5433 5444 5453 5463 5471 5477 5483 5488 5495 5499 5501 5505 5505 5506 5507 5507 5510 5516 5525 5534 5536 5542 5540 5540 5537 5542 5550 5560 5570 5572 5578 5586 5586 5586 5577 5572 5572 5567 5565 5565 5558
5399 5413 5425 5436 5444 5452 5464 5477 5478 5483 5487 5490 5497 5501 5505 5505 5507 5507 5508 5510 5518 5525 5536 5541 5539 5539 5547 5549 5557 5575 5575 5578 5586 5587 5582 5574 5569 5569 5570 5565 5560 5558 5555 5553
5401 5416 5429 5439 5447 5453 5464 5476 5476 5484 5487 5491 5493 5500 5503 5507 5508 5508 5510 5511 5517 5525 5531 5538 5541 5540 5544 5548 5557 5575 5571 5577 5577 5571 5574 5567 5568 5564 5558 5558 5551 5547 5542 5540
5405 5420 5432 5442 5450 5458 5466 5474 5478 5483 5485 5488 5487 5493 5500 5505 5511 5513 5509 5516 5518 5522 5527 5527 5535 5530 5535 5546 5562 5570 5565 5562 5563 5562 5567 5571 5557 5551 5546 5547 5544 5537 5531 5529
5411 5427 5438 5446 5453 5464 5474 5475 5477 5480 5484 5488 5486 5492 5496 5500 5505 5509 5511 5511 5516 5513 5522 5525 5526 5536 5538 5564 5567 5564 5560 5569 5552 5544 5548 5549 5547 5541 5537 5536 5533 5531 5522 5519
5417 5429 5441 5451 5461 5469 5471 5472 5474 5470 5477 5484 5493 5493 5499 5495 5500 5500 5508 5503 5512 5513 5518 5511 5522 5533 5553 5559 5558 5559 5558 5549 5548 5546 5531 5531 5531 5532 5530 5531 5528 5526 5520 5511
5414 5430 5439 5447 5457 5463 5465 5464 5468 5472 5476 5487 5490 5497 5498 5493 5502 5502 5493 5496 5496 5509 5509 5523 5520 5532 5539 5537 5543 5548 5547 5546 5549 5553 5547 5546 5545 5536 5525 5517 5515 5513 5510 5505
5406 5413 5424 5438 5453 5455 5461 5466 5464 5476 5484 5489 5497 5493 5493 5490 5492 5502 5493 5493 5493 5511 5497 5512 5523 5526 5530 5531 5538 5539 5539 5540 5541 5541 5540 5534 5529 5525 5519 5513 5507 5502 5497 5491
5407 5417 5420 5436 5445 5460 5473 5481 5478 5484 5476 5486 5487 5487 5488 5486 5489 5483 5489 5498 5504 5483 5495 5504 5513 5515 5522 5525 5527 5528 5529 5530 5528 5526 5525 5523 5517 5513 5511 5501 5496 5492 5484 5476
5406 5416 5432 5438 5454 5464 5469 5474 5478 5473 5472 5481 5483 5480 5485 5482 5483 5478 5485 5479 5475 5470 5474 5499 5501 5515 5519 5517 5517 5521 5519 5520 5518 5516 5514 5511 5507 5498 5493 5489 5484 5479 5469 5458
5405 5411 5433 5442 5437 5438 5443 5448 5455 5462 5466 5477 5476 5471 5479 5472 5471 5467 5463 5470 5470 5487 5508 5496 5492 5495 5495 5506 5508 5508 5509 5508 5506 5505 5500 5494 5491 5482 5474 5471 5466 5460 5453 5446
5399 5406 5417 5423 5433 5438 5438 5446 5453 5455 5461 5464 5470 5468 5474 5478 5470 5446 5459 5466 5489 5514 5486 5479 5473 5494 5495 5495 5497 5498 5498 5499 5497 5494 5490 5484 5478 5469 5459 5454 5447 5442 5437 5431
5399 5399 5401 5409 5419 5427 5432 5441 5451 5456 5459 5471 5463 5473 5484 5437 5442 5434 5448 5479 5493 5464 5474 5465 5470 5478 5484 5484 5486 5486 5486 5484 5483 5478 5470 5466 5460 5454 5449 5437 5426 5424 5419 5414